DateTimeUTC,F1_A11,F1_S11,BsB_S11,BsG_S11,BsR_S11,BbsB_S11,BbsG_S11,BbsR_S11,BaB_A11,BaG_A11,BaR_A11,Tu_S11,T_S11,Uu_S11,U_S11,P_S11,T1_A11
2021-08-17T20:00:00Z,00000200,20000000,,,,,,,-000.20,0000.69,0000.22,19.6,26.4,07.8,05.2,0677.9,31.1
2021-08-17T20:01:00Z,00000200,20000000,,,,,,,0000.19,-000.28,-000.06,19.6,26.4,07.8,05.2,0677.9,31.1
2021-08-17T20:02:00Z,00000200,20000000,,,,,,,0000.29,0000.27,0000.06,19.6,26.4,07.8,05.2,0677.9,31.1
2021-08-17T20:03:00Z,00000200,60000000,,,,,,,0001.36,0001.26,0001.07,19.6,26.4,07.8,05.2,0677.9,31.1
2021-08-17T20:04:00Z,00000200,40000000,0009.55,0007.81,0005.21,0001.73,0000.63,0000.69,0002.10,0002.05,0001.63,19.7,26.2,08.0,05.4,0678.9,31.1
2021-08-17T20:05:00Z,00000200,00000000,0008.71,0007.48,0005.15,0002.04,0001.02,0000.60,0002.51,0002.22,0001.74,19.8,26.2,08.0,05.4,0678.9,31.1
2021-08-17T20:06:00Z,00000200,00000000,0009.10,0007.55,0005.31,0000.95,0000.41,0000.84,0001.67,0001.47,0001.32,19.8,26.2,07.9,05.3,0678.9,31.1
2021-08-17T20:07:00Z,00000200,00000000,0009.04,0007.46,0004.95,0000.94,0001.05,0000.42,0002.05,0001.98,0001.65,19.8,26.2,08.1,05.5,0678.9,31.1
2021-08-17T20:08:00Z,00000200,00000000,0009.01,0007.10,0005.00,0000.90,0000.65,0000.45,0001.91,0001.91,0001.62,19.8,26.1,08.0,05.5,0678.9,31.1
2021-08-17T20:09:00Z,00000200,00000000,0008.56,0006.53,0004.43,0001.05,0000.89,0000.57,0001.86,0001.81,0001.18,19.8,26.2,08.1,05.5,0678.9,31.1
2021-08-17T20:10:00Z,00000200,00000000,0007.35,0006.02,0003.84,0001.41,0000.68,0000.82,0001.80,0001.66,0001.43,19.8,26.1,08.2,05.6,0678.9,31.1
2021-08-17T20:11:00Z,00000200,00000000,0007.39,0006.45,0004.16,0000.95,0001.01,0000.81,0001.83,0001.30,0000.97,19.8,26.1,08.3,05.7,0678.9,31.1
2021-08-17T20:12:00Z,00000200,00000000,0006.81,0005.88,0004.14,0001.16,0000.75,0000.61,0001.85,0001.77,0001.46,19.8,26.1,08.2,05.6,0678.9,31.1
2021-08-17T20:13:00Z,00000200,00000000,0007.18,0005.70,0003.74,0001.21,0000.46,0000.84,0001.45,0001.26,0000.80,19.8,26.1,08.2,05.6,0678.9,31.1
2021-08-17T20:14:00Z,00000200,00000000,0006.40,0005.97,0004.23,0000.01,0000.54,0000.58,0001.63,0001.65,0001.31,19.8,26.1,08.3,05.6,0678.9,31.0
2021-08-17T20:15:00Z,00000200,00000000,0007.17,0005.96,0004.43,0001.16,0000.43,0000.56,0001.57,0001.50,0001.18,19.8,26.1,08.2,05.6,0678.9,31.1
2021-08-17T20:16:00Z,00000200,00000000,0007.96,0005.83,0003.80,0000.70,0000.77,0000.42,0001.69,0001.69,0001.20,19.8,26.1,08.4,05.7,0678.9,31.1
2021-08-17T20:17:00Z,00000200,00000000,0006.77,0005.47,0003.91,0000.86,0000.45,0000.60,0001.70,0001.24,0001.21,19.8,26.1,08.3,05.7,0678.8,31.1
2021-08-17T20:18:00Z,00000200,00000000,0006.55,0005.63,0003.52,0000.34,0000.50,0000.74,0001.25,0001.44,0001.08,19.8,26.1,08.3,05.6,0678.8,31.1
2021-08-17T20:19:00Z,00000200,00000000,0006.22,0004.70,0003.24,0000.70,0000.36,0000.76,0001.42,0001.25,0001.04,19.8,26.1,08.3,05.6,0678.8,31.1
2021-08-17T20:20:00Z,00000200,00000000,0006.97,0005.52,0003.45,0000.97,0000.25,0000.17,0001.72,0001.44,0001.32,19.8,26.1,08.3,05.7,0678.8,31.1
2021-08-17T20:21:00Z,00000200,00000000,0007.26,0005.77,0003.82,0001.08,0000.69,0000.91,0001.70,0001.66,0000.99,19.8,26.1,08.3,05.7,0678.9,31.1
2021-08-17T20:22:00Z,00000200,00000000,0006.99,0006.39,0003.98,0000.33,0000.69,0000.83,0001.51,0001.40,0001.02,19.8,26.1,08.3,05.7,0678.9,31.1
2021-08-17T20:23:00Z,00000200,00000000,0007.44,0006.45,0004.55,0000.41,0000.48,0000.54,0001.61,0001.57,0001.59,19.8,26.1,08.4,05.7,0678.9,31.1
2021-08-17T20:24:00Z,00000200,00000000,0008.53,0006.38,0004.69,0001.09,0000.61,0000.61,0001.95,0001.51,0001.18,19.8,26.1,08.3,05.6,0678.9,31.1
2021-08-17T20:25:00Z,00000200,00000000,0007.03,0006.24,0004.27,0001.16,0000.73,0000.77,0001.50,0001.72,0001.30,19.8,26.1,08.3,05.7,0678.9,31.1
2021-08-17T20:26:00Z,00000200,00000000,0007.35,0006.08,0003.78,0001.06,0000.56,0000.34,0001.66,0001.41,0001.08,19.7,26.1,08.2,05.6,0678.9,31.0
2021-08-17T20:27:00Z,00000200,00000000,0007.12,0005.73,0003.98,0001.32,0000.87,0000.96,0001.61,0001.22,0001.02,19.8,26.1,08.3,05.7,0678.9,31.1
2021-08-17T20:28:00Z,00000200,00000000,0006.73,0005.71,0003.65,0000.90,0000.73,0000.33,0001.72,0002.02,0001.47,19.8,26.1,08.3,05.7,0678.9,31.1
2021-08-17T20:29:00Z,00000200,00000000,0006.88,0005.63,0004.10,0000.42,0000.58,0000.73,0001.42,0000.97,0000.73,19.7,26.1,08.3,05.6,0678.9,31.1
2021-08-17T20:30:00Z,00000200,00000000,0006.35,0005.63,0003.85,0001.16,0001.07,0000.44,0001.72,0001.65,0001.46,19.7,26.1,08.4,05.7,0678.9,31.0
2021-08-17T20:31:00Z,00000200,00000000,0007.47,0005.76,0003.40,0000.58,0000.50,0000.32,0001.52,0001.45,0000.68,19.8,26.0,08.3,05.6,0678.8,31.0
2021-08-17T20:32:00Z,00000200,00000000,0006.85,0005.50,0003.85,0000.54,0000.47,0000.88,0001.57,0001.24,0001.34,19.7,26.1,08.3,05.7,0678.9,31.1
2021-08-17T20:33:00Z,00000200,00000000,0006.81,0005.11,0003.02,0000.63,0000.76,0000.12,-005.46,-005.44,-006.12,19.8,26.1,08.2,05.6,0678.9,31.1
2021-08-17T20:34:00Z,00000200,00000000,0005.17,0005.21,0003.43,0001.02,0000.65,0000.60,0000.83,0000.48,0000.40,19.8,26.1,08.2,05.6,0678.9,31.1
2021-08-17T20:35:00Z,00000200,00000000,0005.50,0004.67,0002.98,0000.66,0000.27,0000.96,0001.05,0000.99,0000.47,19.7,26.1,08.0,05.5,0678.9,31.1
2021-08-17T20:36:00Z,00000200,00000000,0004.52,0004.23,0002.48,0000.21,0000.32,0000.40,0001.29,0001.39,0001.01,19.8,26.1,07.8,05.3,0678.9,31.0
2021-08-17T20:37:00Z,00000200,00000000,0005.28,0004.08,0002.86,0000.88,0000.33,0000.54,0001.05,0000.88,0000.59,19.8,26.1,07.7,05.3,0678.9,31.1
2021-08-17T20:38:00Z,00000200,00000000,0004.87,0004.02,0002.56,0000.55,0000.44,0000.17,0001.42,0001.02,0000.86,19.8,26.1,07.7,05.2,0678.9,31.0
2021-08-17T20:39:00Z,00000200,00000000,0005.13,0004.22,0002.76,0001.23,0000.41,0000.08,0001.06,0001.16,0001.19,19.8,26.1,07.7,05.2,0678.9,31.0
2021-08-17T20:40:00Z,00000200,00000000,0004.75,0003.61,0003.09,0000.54,0000.65,0000.62,0001.23,0001.39,0000.82,19.7,26.0,07.7,05.3,0678.9,31.0
2021-08-17T20:41:00Z,00000200,00000000,0005.71,0004.22,0002.67,0000.53,0000.66,0000.29,0001.03,0001.01,0000.95,19.8,26.0,07.7,05.3,0678.9,31.1
2021-08-17T20:42:00Z,00000200,00000000,0004.67,0003.94,0002.78,0000.47,0000.42,0000.43,0001.03,0001.19,0000.94,19.7,26.0,07.8,05.3,0678.9,31.1
2021-08-17T20:43:00Z,00000200,00000000,0004.98,0003.95,0002.97,0000.29,0000.53,0000.29,0001.58,0000.77,0000.70,19.7,26.0,07.7,05.3,0678.9,31.0
2021-08-17T20:44:00Z,00000200,00000000,0004.57,0004.24,0002.99,0000.65,0000.42,0000.67,0000.96,0001.21,0000.89,19.7,26.0,07.7,05.3,0678.9,31.1
2021-08-17T20:45:00Z,00000200,00000000,0005.36,0004.47,0002.68,0000.53,0000.58,0000.36,0001.26,0001.21,0000.85,19.7,26.0,07.7,05.3,0678.9,31.1
2021-08-17T20:46:00Z,00000200,00000000,0005.21,0003.91,0002.88,0000.50,0000.07,0000.26,0001.31,0001.15,0000.52,19.8,26.0,07.8,05.3,0678.9,31.0
2021-08-17T20:47:00Z,00000200,00000000,0004.98,0004.12,0002.67,0000.94,0000.43,0000.12,0001.07,0000.63,0000.95,19.8,26.0,07.6,05.2,0678.9,31.1
2021-08-17T20:48:00Z,00000200,00000000,0005.28,0004.49,0002.62,0000.61,0000.32,0000.76,0001.25,0001.41,0001.11,19.7,26.0,07.6,05.2,0678.9,31.1
2021-08-17T20:49:00Z,00000200,00000000,0005.26,0004.07,0002.57,0000.93,0000.48,0000.38,0001.25,0001.16,0000.86,19.8,26.0,07.6,05.2,0678.9,31.1
2021-08-17T20:50:00Z,00000200,00000000,0005.19,0003.86,0002.76,0000.28,0000.22,0000.31,0001.13,0001.16,0000.86,19.8,26.0,07.7,05.3,0678.9,31.0
2021-08-17T20:51:00Z,00000200,00000000,0004.11,0003.85,0002.46,0000.86,0000.29,0000.41,0001.28,0001.05,0001.03,19.8,26.0,07.6,05.2,0678.9,31.1
2021-08-17T20:52:00Z,00000200,00000000,0005.43,0004.10,0002.37,0000.78,0000.30,0000.37,0001.20,0001.04,0000.68,19.8,26.0,07.7,05.3,0678.9,31.0
2021-08-17T20:53:00Z,00000200,00000000,0005.24,0003.85,0002.71,0000.95,0000.43,0000.63,0001.03,0000.96,0000.68,19.8,26.0,07.6,05.2,0678.9,31.0
2021-08-17T20:54:00Z,00000200,00000000,0004.94,0004.18,0002.69,0000.19,0000.07,0000.56,0001.06,0000.66,0000.84,19.7,26.0,07.6,05.2,0678.9,31.1
2021-08-17T20:55:00Z,00000200,00000000,0004.29,0004.00,0002.58,0000.71,0000.41,0000.30,0001.25,0001.35,0000.72,19.7,26.0,07.7,05.3,0678.9,31.0
2021-08-17T20:56:00Z,00000200,00000000,0004.26,0004.01,0002.44,0000.74,0000.41,0000.15,0001.12,0001.04,0000.96,19.7,26.0,07.7,05.3,0678.9,31.0
2021-08-17T20:57:00Z,00000200,40000000,,,,,,,0000.25,0000.47,0000.42,19.8,26.0,07.3,05.0,0678.9,31.1
2021-08-17T20:58:00Z,00000200,60000000,,,,,,,-000.07,-000.03,0000.08,19.5,26.1,07.8,05.2,0677.9,31.0
2021-08-17T20:59:00Z,00000200,20000000,,,,,,,0000.27,-000.15,-000.11,19.5,26.2,07.8,05.2,0677.9,31.0
